Lafayette, LA

9:39 AM CST on January 23, 2017 (GMT -0600)
Lafayette Regional

Weather History for KLFT - March, 2014

Change the Weather History Date:

Saturday, March 22, 2014

  Actual Average Record
Temperature  
Mean Temperature 69 °F 64 °F  
Max Temperature 80 °F 74 °F 87 °F (1910)
Min Temperature 57 °F 53 °F 26 °F (1915)
Degree Days  
Heating Degree Days 0 4  
Month to date heating degree days 183 121  
Since 1 July heating degree days 1843 1351  
Cooling Degree Days 4 2  
Month to date cooling degree days 17 38  
Year to date cooling degree days 31 70  
Growing Degree Days 18 (Base 50)    
Moisture  
Dew Point 63 °F    
Average Humidity 79    
Maximum Humidity 100    
Minimum Humidity 58    
Precipitation  
Precipitation 0.00 in 0.11 in 1.87 in (1926)
Month to date precipitation 1.78 2.73  
Year to date precipitation 9.03 12.85  
Snow  
Snow 0.00 in 0.00 in T in (1968)
Month to date snowfall 0.0 0.0  
Since 1 July snowfall 0.8 T  
Snow Depth 0.00 in    
Sea Level Pressure  
Sea Level Pressure 30.00 in    
Wind  
Wind Speed 3 mph (South)    
Max Wind Speed 13 mph    
Max Gust Speed 18 mph    
Visibility 9 miles    
Events      
T = Trace of Precipitation, MM = Missing Value Source: NWS Daily Summary

Daily Weather History Graph

Daily Weather History Graph

Search for Another Location

Airport or City:

Trip Planner

Search our weather history database for the weather conditions in past years. The results will help you decide how hot, cold, wet, or windy it might be!

Date:

Astronomy

Mar. 22, 2014 Rise Set
Actual Time 7:09 AM CDT 7:20 PM CDT
Civil Twilight 6:45 AM CDT 7:44 PM CDT
Nautical Twilight 6:17 AM CDT 8:12 PM CDT
Astronomical Twilight 5:49 AM CDT 8:40 PM CDT
Moon 12:20 AM CDT (3/22) 11:13 AM CDT (3/22)
Length of Visible Light 12h 59m
Length of Day
12h 11m
Waning Gibbous, 65% of the Moon is Illuminated
Mar 22
Waning Gibbous
Mar 23
Last Quarter
Mar 30
New
Apr 7
First Quarter
Apr 15
Full

Hourly Weather History & Observations

Time (CDT) Temp. Heat Index Dew Point Humidity Pressure Visibility Wind Dir Wind Speed Gust Speed Precip Events Conditions
12:53 AM 57.0 °F - 55.0 °F 93% 30.01 in 5.0 mi Calm Calm - N/A   Clear
1:53 AM 57.0 °F - 55.0 °F 93% 30.01 in 7.0 mi NNE 3.5 mph - N/A   Overcast
2:53 AM 57.9 °F - 57.0 °F 97% 30.00 in 4.0 mi ENE 3.5 mph - N/A   Mostly Cloudy
3:53 AM 59.0 °F - 57.9 °F 96% 30.00 in 5.0 mi NE 3.5 mph - N/A   Overcast
4:53 AM 60.1 °F - 57.9 °F 93% 29.99 in 5.0 mi Calm Calm - N/A   Overcast
5:53 AM 60.1 °F - 59.0 °F 96% 29.99 in 6.0 mi Calm Calm - N/A   Overcast
6:53 AM 61.0 °F - 59.0 °F 93% 30.01 in 6.0 mi Calm Calm - N/A   Overcast
7:53 AM 62.1 °F - 60.1 °F 93% 30.03 in 4.0 mi Calm Calm - N/A   Overcast
8:53 AM 64.0 °F - 61.0 °F 90% 30.04 in 6.0 mi Calm Calm - N/A   Mostly Cloudy
9:53 AM 68.0 °F - 63.0 °F 84% 30.04 in 10.0 mi Calm Calm - N/A   Clear
10:53 AM 73.9 °F - 66.0 °F 76% 30.04 in 9.0 mi Calm Calm - N/A   Clear
11:53 AM 75.9 °F - 64.0 °F 67% 30.04 in 10.0 mi Calm Calm - N/A   Mostly Cloudy
12:53 PM 78.1 °F - 64.9 °F 64% 30.02 in 10.0 mi Calm Calm - N/A   Overcast
1:53 PM 78.1 °F - 64.0 °F 62% 30.00 in 10.0 mi Variable 3.5 mph - N/A   Overcast
2:53 PM 78.1 °F - 64.0 °F 62% 29.98 in 10.0 mi Calm Calm - N/A   Overcast
3:53 PM 80.1 °F 81.7 °F 64.0 °F 58% 29.96 in 10.0 mi Calm Calm - N/A   Overcast
4:53 PM 79.0 °F - 64.9 °F 62% 29.96 in 10.0 mi SW 8.1 mph - N/A   Overcast
5:53 PM 77.0 °F - 66.9 °F 71% 29.95 in 10.0 mi South 8.1 mph - N/A   Clear
6:53 PM 75.0 °F - 66.9 °F 76% 29.97 in 10.0 mi South 10.4 mph - N/A   Clear
7:53 PM 71.1 °F - 66.9 °F 87% 29.99 in 10.0 mi South 11.5 mph - N/A   Partly Cloudy
8:23 PM 70.0 °F - 66.0 °F 87% 30.00 in 10.0 mi South 8.1 mph - N/A   Scattered Clouds
8:31 PM 70.0 °F - 66.0 °F 87% 30.00 in 10.0 mi South 8.1 mph - N/A   Mostly Cloudy
8:53 PM 69.1 °F - 66.0 °F 90% 30.00 in 10.0 mi South 5.8 mph - N/A   Scattered Clouds
9:06 PM 69.1 °F - 66.0 °F 90% 30.00 in 10.0 mi South 6.9 mph - N/A   Mostly Cloudy
9:20 PM 69.1 °F - 66.0 °F 90% 29.99 in 10.0 mi South 9.2 mph - N/A   Scattered Clouds
9:53 PM 68.0 °F - 64.9 °F 90% 30.02 in 10.0 mi South 9.2 mph - N/A   Partly Cloudy
10:07 PM 68.0 °F - 66.0 °F 93% 30.04 in 10.0 mi SSW 9.2 mph - N/A   Mostly Cloudy
10:21 PM 68.0 °F - 66.0 °F 93% 30.01 in 10.0 mi South 8.1 mph - N/A   Overcast
10:53 PM 66.9 °F - 66.0 °F 97% 30.02 in 10.0 mi South 6.9 mph - N/A   Mostly Cloudy
11:53 PM 66.9 °F - 66.0 °F 97% 30.02 in 10.0 mi South 4.6 mph - N/A   Overcast